Change the Weather History Date:

Thursday, January 16, 2014

  Actual Average Record
Temperature  
Mean Temperature 56 °F -  
Max Temperature 62 °F - - ()
Min Temperature 50 °F - - ()
Degree Days  
Heating Degree Days 9    
Growing Degree Days 6 (Base 50)    
Moisture  
Dew Point 33 °F    
Average Humidity 45    
Maximum Humidity 58    
Minimum Humidity 33    
Precipitation  
Precipitation 0.00 in - - ()
Sea Level Pressure  
Sea Level Pressure 30.21 in    
Wind  
Wind Speed 12 mph (WNW)    
Max Wind Speed 22 mph    
Max Gust Speed 22 mph    
Visibility 10 miles    
Events      
T = Trace of Precipitation, MM = Missing Value Source: NWS Daily Summary

Daily Weather History Graph

Daily Weather History Graph

Search for Another Location

Airport or City:

Trip Planner

Search our weather history database for the weather conditions in past years. The results will help you decide how hot, cold, wet, or windy it might be!

Date:

Astronomy

Jan. 16, 2014 Rise Set
Actual Time 6:52 AM CST 5:25 PM CST
Civil Twilight 6:27 AM CST 5:50 PM CST
Nautical Twilight 5:58 AM CST 6:19 PM CST
Astronomical Twilight 5:30 AM CST 6:48 PM CST
Moon 6:08 PM CST (1/16) 6:53 AM CST (1/16)
Length of Visible Light 11h 23m
Length of Day
10h 32m
Full, 100% of the Moon is Illuminated
Jan 16
Full
Jan 23
Last Quarter
Jan 30
New
Feb 6
First Quarter
Feb 14
Full

Hourly Weather History & Observations

Time (CST) Temp. Dew Point Humidity Pressure Visibility Wind Dir Wind Speed Gust Speed Precip Events Conditions
12:15 AM 51.8 °F 24.8 °F 35% 30.24 in 10.0 mi NNW 21.9 mph - N/A   Clear
12:35 AM 51.8 °F 24.8 °F 35% 30.23 in 10.0 mi NNW 19.6 mph - N/A   Clear
12:55 AM 51.8 °F 24.8 °F 35% 30.23 in 10.0 mi North - - N/A   Clear
1:15 AM 51.8 °F 23.0 °F 33% 30.22 in 10.0 mi NW 17.3 mph - N/A   Clear
1:35 AM 51.8 °F 24.8 °F 35% 30.23 in 10.0 mi NNW 13.8 mph - N/A   Clear
1:55 AM 51.8 °F 23.0 °F 33% 30.23 in 10.0 mi NNW 11.5 mph - N/A   Clear
2:15 AM 51.8 °F 23.0 °F 33% 30.22 in 10.0 mi NNW 12.7 mph - N/A   Clear
2:35 AM 51.8 °F 24.8 °F 35% 30.22 in 10.0 mi NNW 15.0 mph - N/A   Clear
2:55 AM 51.8 °F 23.0 °F 33% 30.22 in 10.0 mi NNW 13.8 mph - N/A   Clear
3:15 AM 51.8 °F 24.8 °F 35% 30.21 in 10.0 mi NNW 12.7 mph - N/A   Clear
3:35 AM 51.8 °F 23.0 °F 33% 30.21 in 10.0 mi NNW 13.8 mph - N/A   Clear
3:55 AM 51.8 °F 23.0 °F 33% 30.22 in 10.0 mi NNW 15.0 mph - N/A   Clear
4:15 AM 51.8 °F 24.8 °F 35% 30.21 in 10.0 mi NNW 12.7 mph - N/A   Clear
4:35 AM 51.8 °F 23.0 °F 33% 30.21 in 10.0 mi NNW 12.7 mph - N/A   Clear
4:55 AM 51.8 °F 24.8 °F 35% 30.21 in 10.0 mi NNW 12.7 mph - N/A   Clear
5:15 AM 51.8 °F 24.8 °F 35% 30.21 in 10.0 mi NNW 13.8 mph - N/A   Clear
5:35 AM 50.0 °F 30.2 °F 47% 30.22 in 10.0 mi North 11.5 mph - N/A   Clear
5:55 AM 50.0 °F 28.4 °F 43% 30.22 in 10.0 mi North 9.2 mph - N/A   Clear
6:15 AM 50.0 °F 28.4 °F 43% 30.21 in 10.0 mi NNE 5.8 mph - N/A   Clear
6:35 AM 50.0 °F 28.4 °F 43% 30.22 in 10.0 mi North 4.6 mph - N/A   Clear
6:55 AM 50.0 °F 28.4 °F 43% 30.23 in 10.0 mi North 8.1 mph - N/A   Clear
7:15 AM 50.0 °F 30.2 °F 47% 30.24 in 10.0 mi North 6.9 mph - N/A   Clear
7:35 AM 50.0 °F 28.4 °F 43% 30.25 in 10.0 mi North 5.8 mph - N/A   Clear
7:55 AM 51.8 °F 28.4 °F 41% 30.25 in 10.0 mi North 8.1 mph - N/A   Clear
8:15 AM 51.8 °F 28.4 °F 41% 30.26 in 10.0 mi NNW 8.1 mph - N/A   Clear
8:35 AM 51.8 °F 28.4 °F 41% 30.27 in 10.0 mi North 8.1 mph - N/A   Clear
8:55 AM 51.8 °F 35.6 °F 54% 30.28 in 10.0 mi NNE 9.2 mph - N/A   Clear
9:15 AM 51.8 °F 35.6 °F 54% 30.28 in 10.0 mi NE 5.8 mph - N/A   Clear
9:35 AM 51.8 °F 35.6 °F 54% 30.29 in 10.0 mi NE 6.9 mph - N/A   Clear
9:55 AM 51.8 °F 35.6 °F 54% 30.30 in 10.0 mi ENE 4.6 mph - N/A   Clear
10:15 AM 51.8 °F 35.6 °F 54% 30.29 in 10.0 mi East 6.9 mph - N/A   Clear
10:35 AM 50.0 °F 35.6 °F 58% 30.29 in 10.0 mi East 4.6 mph - N/A   Clear
10:55 AM 50.0 °F 35.6 °F 58% 30.28 in 10.0 mi ESE 5.8 mph - N/A   Clear
11:15 AM 50.0 °F 33.8 °F 54% 30.27 in 10.0 mi SE 3.5 mph - N/A   Clear
11:35 AM 50.0 °F 33.8 °F 54% 30.26 in 10.0 mi Calm Calm - N/A   Clear
11:55 AM 51.8 °F 33.8 °F 50% 30.24 in 10.0 mi Calm Calm - N/A   Clear
12:15 PM 51.8 °F 33.8 °F 50% 30.22 in 10.0 mi South 4.6 mph - N/A   Clear
12:35 PM 51.8 °F 33.8 °F 50% 30.20 in - SSE 8.1 mph - N/A   Clear
12:55 PM 51.8 °F 33.8 °F 50% 30.19 in 10.0 mi South 6.9 mph - N/A   Clear
1:15 PM 51.8 °F 33.8 °F 50% 30.18 in 10.0 mi South 5.8 mph - N/A   Clear
1:35 PM 51.8 °F 33.8 °F 50% 30.17 in 10.0 mi South 6.9 mph - N/A   Clear
1:55 PM 53.6 °F 32.0 °F 44% 30.17 in 10.0 mi South 5.8 mph - N/A   Clear
2:15 PM 53.6 °F 32.0 °F 44% 30.17 in 10.0 mi South 8.1 mph - N/A   Clear
2:35 PM 53.6 °F 33.8 °F 47% 30.16 in 10.0 mi Variable 4.6 mph - N/A   Clear
2:55 PM 55.4 °F 33.8 °F 44% 30.17 in 10.0 mi SSW 5.8 mph - N/A   Clear
3:15 PM 55.4 °F 33.8 °F 44% 30.17 in 10.0 mi SW 5.8 mph - N/A   Partly Cloudy
3:35 PM 55.4 °F 35.6 °F 47% 30.18 in 10.0 mi West 8.1 mph - N/A   Clear
3:55 PM 55.4 °F 35.6 °F 47% 30.18 in 10.0 mi Variable 5.8 mph - N/A   Clear
4:15 PM 55.4 °F 33.8 °F 44% 30.18 in 10.0 mi West 9.2 mph - N/A   Clear
4:35 PM 57.2 °F 33.8 °F 41% 30.18 in 10.0 mi West 11.5 mph - N/A   Clear
4:55 PM 57.2 °F 32.0 °F 38% 30.18 in 10.0 mi WSW 9.2 mph - N/A   Clear
5:15 PM 57.2 °F 33.8 °F 41% 30.18 in 10.0 mi Variable 5.8 mph 11.5 mph N/A   Clear
5:35 PM 57.2 °F 33.8 °F 41% 30.18 in 10.0 mi Variable 5.8 mph 11.5 mph N/A   Clear
5:55 PM 57.2 °F 35.6 °F 44% 30.18 in 10.0 mi Variable 5.8 mph 12.7 mph N/A   Clear
6:15 PM 57.2 °F 35.6 °F 44% 30.18 in 10.0 mi WSW 10.4 mph - N/A   Clear
6:35 PM 57.2 °F 37.4 °F 48% 30.19 in 10.0 mi WSW 9.2 mph - N/A   Clear
6:55 PM 57.2 °F 37.4 °F 48% 30.19 in 10.0 mi WSW 9.2 mph - N/A   Clear
7:15 PM 59.0 °F 39.2 °F 48% 30.19 in 10.0 mi WSW 10.4 mph - N/A   Clear
7:35 PM 59.0 °F 39.2 °F 48% 30.19 in 10.0 mi WSW 9.2 mph - N/A   Clear
7:55 PM 59.0 °F 39.2 °F 48% 30.19 in 10.0 mi SW 11.5 mph - N/A   Clear
8:15 PM 59.0 °F 41.0 °F 51% 30.19 in 10.0 mi SW 13.8 mph - N/A   Clear
8:35 PM 59.0 °F 41.0 °F 51% 30.20 in 10.0 mi SSW 9.2 mph 19.6 mph N/A   Clear
8:55 PM 60.8 °F 41.0 °F 48% 30.19 in 10.0 mi SW 16.1 mph - N/A   Clear
9:15 PM 60.8 °F 42.8 °F 52% 30.20 in 10.0 mi SW 13.8 mph - N/A   Clear
9:35 PM 60.8 °F 42.8 °F 52% 30.20 in 10.0 mi SW 15.0 mph - N/A   Clear
9:55 PM 60.8 °F 42.8 °F 52% 30.20 in 10.0 mi SW 16.1 mph 21.9 mph N/A   Clear
10:15 PM 60.8 °F 42.8 °F 52% 30.20 in 10.0 mi WSW 15.0 mph - N/A   Clear
10:35 PM 60.8 °F 42.8 °F 52% 30.19 in 10.0 mi SW 16.1 mph - N/A   Clear
10:55 PM 62.6 °F 42.8 °F 48% 30.19 in 10.0 mi SW 15.0 mph - N/A   Clear
11:15 PM 62.6 °F 42.8 °F 48% 30.18 in 10.0 mi SW 12.7 mph 19.6 mph N/A   Clear
11:35 PM 62.6 °F 42.8 °F 48% 30.17 in 10.0 mi SW 17.3 mph - N/A   Partly Cloudy
11:55 PM 62.6 °F 44.6 °F 52% 30.17 in 10.0 mi WSW 18.4 mph - N/A   Partly Cloudy